www.pogodaiklimat.ru

Погода и климат >> Архив погоды >> Иран >> Saravan


ПОГОДА в Saravan

  • Прогноз погоды в Saravan
  • Монитор погоды в Saravan
  • Климат города

АРХИВ ПОГОДЫ в Saravan

Время (UTC), дата Ветер
(напр.,м/с)
 
Видим.   Явления Облачность Т
(С)
Тd
(С)
f
(%)
Тe
(С)
Тes
(С)
Комфортность P
(гПа)
Po
(гПа)
Тmin
(С)
Tmax
(С)
R
(мм)
R24
(мм)
S
(см)
15 9.10 СВ 7 12 км ясно +22.6 -15.3 7 +20 +20 1014.2 884.2 +26.8
18 9.10 штиль 0 12 км ясно +21.5 -16.1 7 +20 +20 1014.7 885.4
21 9.10 штиль 0 12 км ясно +17.1 -13.4 11 +17 +17 1014.5 884.7
00 10.10 штиль 0 12 км ясно +13.7 -12.0 16 +14 +14 1014.8 884.7
03 10.10 штиль 0 12 км ясно +16.1 -12.6 13 +16 +17 1016.5 886.0 +13.5
06 10.10 СВ 5 15 км ясно +22.7 -17.0 6 +20 +26 1016.3 886.9
09 10.10 СВ 7 15 км ясно +25.9 -11.2 8 +23 +26 комфорт 1013.5 884.3
12 10.10 В 5 15 км ясно +26.0 -4.7 13 +23 +25 комфорт 1013.2 883.4
15 10.10 СВ 6 15 км ясно +22.4 -12.7 9 +20 +20 1014.5 884.2 +27.2
18 10.10 штиль 0 15 км ясно +20.4 -14.8 8 +19 +19 1015.3 885.8
21 10.10 штиль 0 15 км ясно +16.1 -14.9 11 +16 +16 1015.2 885.2
00 11.10 штиль 0 15 км ясно +12.2 -15.6 13 +12 +12 1015.5 885.0
03 11.10 штиль 0 15 км ясно +12.7 -16.3 12 +13 +14 1017.2 885.8 +11.0
06 11.10 СВ 6 15 км ясно +22.9 -15.9 6 +20 +24 1015.9 886.4
09 11.10 СВ 6 15 км ясно +26.4 -14.9 6 +23 +28 комфорт 1013.8 884.4
12 11.10 В 5 15 км ясно +26.7 -12.4 7 +23 +24 комфорт 1013.2 883.2
15 11.10 В 4 15 км ясно +22.5 -12.3 9 +20 +20 1015.8 884.7 +27.2
18 11.10 СВ 4 15 км ясно +20.2 -14.0 9 +19 +19 1015.7 886.2
21 11.10 СЗ 2 15 км ясно +16.1 -13.3 12 +16 +16 1014.9 885.5
00 12.10 штиль 0 15 км ясно +13.5 -13.4 14 +14 +14 1015.0 885.0
03 12.10 штиль 0 15 км ясно +13.5 -13.4 14 +14 +15 1017.4 886.2 +11.4
06 12.10 СВ 5 15 км ясно +25.0 -15.8 6 +22 +27 комфорт 1016.4 887.2
09 12.10 СВ 2 15 км ясно +27.5 -9.2 8 +24 +37 комфорт 1014.8 885.6
12 12.10 СВ 4 15 км ясно +27.5 -8.5 9 +24 +26 комфорт 1014.4 884.7
15 12.10 СВ 3 15 км ясно +23.6 -8.9 11 +21 +21 комфорт 1016.2 885.5 +28.3
18 12.10 С 2 15 км ясно +23.0 -8.5 11 +21 +21 комфорт 1015.2 886.8
21 12.10 штиль 0 15 км ясно +17.8 -8.0 16 +18 +18 1014.9 886.1
00 13.10 штиль 0 15 км ясно +14.8 -7.8 20 +15 +15 1015.7 886.1
03 13.10 штиль 0 15 км ясно +15.7 -5.3 23 +16 +17 1018.0 887.5 +13.7
06 13.10 СВ 4 15 км ясно +26.1 -1.4 16 +24 +31 комфорт 1016.5 888.3
09 13.10 СВ 6 15 км ясно +28.3 -3.7 12 +25 +30 комфорт 1015.7 886.9
12 13.10 СВ 5 15 км ясно +28.5 -2.2 13 +26 +27 жарко 1015.2 886.0
15 13.10 СВ 3 15 км ясно +24.8 -3.8 15 +23 +23 комфорт 1017.1 887.0 +29.0
18 13.10 СВ 4 15 км ясно +23.3 -4.0 16 +21 +21 комфорт 1015.4 887.3
21 13.10 штиль 0 15 км ясно +19.9 -4.1 19 +19 +19 1015.3 886.9
00 14.10 штиль 0 15 км ясно +15.2 -3.8 27 +15 +15 1016.4 887.1
03 14.10 С 2 15 км ясно +17.9 -3.9 22 +18 +19 1018.3 888.5 +14.7
06 14.10 СВ 4 12 км ясно +24.5 -1.5 18 +23 +30 комфорт 1017.9 889.2
09 14.10 СВ 2 12 км ясно +27.9 +0.4 17 +26 +38 жарко 1015.5 887.2
12 14.10 В 3 15 км 3/3 1200 м
[Cu hum]
+28.2 +1.1 17 +26 +27 жарко 1014.5 885.4
15 14.10 СВ 3 15 км 1/1 1200 м
[Sc diur, vesp]
+23.9 +1.7 23 +23 +23 комфорт 1015.6 886.1 +30.0
18 14.10 штиль 0 15 км ясно +20.9 +1.0 27 +21 +21 комфорт 1015.9 887.1
21 14.10 штиль 0 15 км ясно +17.3 +0.2 31 +17 +17 1015.3 886.4
00 15.10 штиль 0 15 км ясно +14.9 -0.6 35 +15 +15 1015.4 886.1
03 15.10 штиль 0 15 км 1/0
[Ac As]
+16.4 +0.9 35 +16 +17 1017.5 887.4 +13.8
06 15.10 штиль 0 15 км 4/0
[Ci sp]
+26.7 +2.8 21 +25 +38 комфорт 1016.5 888.1
09 15.10 СВ 4 15 км 5/3 1200 м
[Cu med, cong Ci sp]
+27.6 +2.7 20 +26 +31 жарко 1014.4 885.7
12 15.10 СВ 2 15 км 5/3 1200 м
[Cu med, cong Ci sp]
+27.1 +2.7 21 +26 +27 жарко 1014.2 884.9
15 15.10 СВ 4 15 км 4/1 1200 м
[Sc diur, vesp Ac As]
+24.6 +2.1 23 +24 +24 комфорт 1015.3 885.7 +28.5
18 15.10 штиль 0 12 км 4/1 1200 м
[Sc diur, vesp Ac As]
+22.2 +1.8 26 +22 +22 комфорт 1014.5 886.6
21 15.10 штиль 0 12 км 3/0
[Ac As]
+19.4 +0.6 28 +19 +19 1014.2 885.9
00 16.10 штиль 0 12 км ясно +15.8 -0.1 34 +16 +16 1014.5 885.3
03 16.10 штиль 0 12 км 4/0
[Ac As]
+16.9 +0.8 34 +17 +18 1016.7 887.0 +15.2
06 16.10 СВ 3 12 км 4/0
[Ac As]
+25.4 +1.9 22 +24 +30 комфорт 1016.6 888.1
09 16.10 СЗ 2 12 км 5/3 1200 м
[Cu med, cong Ac As]
+28.0 +2.8 20 +26 +33 жарко 1013.8 885.7

 

Местоположение метеостанции Saravan (Иран): широта 27.33 долгота 62.33 высота над уровнем моря 1195 м.

В архиве по умолчанию представлена погода в Saravan за последнюю неделю. Архивные данные за месяц целиком и за предыдущие месяцы, начиная с января 2011 года, Вы можете получить, выбрав интересующий диапазон дат из раскрывающегося списка и нажав кнопку "Ввод!".


*Определитесь, кто Вы:
робот инопланетянин человек

Внимание! Время в таблицах - всемирное. Для получения местного времени необходимо прибавить поправку, которая в Saravan равна 3.5 ч.

Смотрите также архив погоды в соседних городах и на ближайших метеорологических станциях:

Погода в Iranshahr (Иран) (162 км)
Погода в Nokkundi (Пакистан) (171 км)
Погода в Panjgur (Пакистан) (180 км)
Погода в Gawadar (Пакистан) (245 км)
Погода в Pasni (Пакистан) (256 км)
Погода в Jiwani (Пакистан) (257 км)
Погода в Dal Bandin (Пакистан) (266 км)
Погода в Zahedan (Иран) (277 км)
Погода в Chah Bahar Airport (Иран) (285 км)
Погода в Zabol (Иран) (422 км)

Пояснения к столбцам:

Ветер - указаны скорость ветра в м/с - средняя за 10 мин, порывы в срок и между сроками (в фигурных скобках) и направление, откуда дует ветер: С - северный, СВ - северо-восточный, В - восточный, ЮВ - юго-восточный, Ю - южный, ЮЗ - юго-западный, З - западный, СЗ - северо-западный.
Видимость - горизонтальная дальность видимости в метрах или километрах. При видимости от 1 до 10 км при отсутствии осадков обычно наблюдается дымка, при ухудшении видимости до 1 км и менее - туман. В сухую погоду видимость может ухудшаться дымом, пылью или мглою.
Явления - указаны атмосферные явления, наблюдавшиеся в срок или в последний час перед сроком; фигурными скобками обозначены явления, наблюдавшиеся между сроками (за 1-3 часа до срока); квадратными скобками обозначены град или гололедные отложения с указанием их диаметра в мм.
Облачность - указаны через наклонную черту общая и нижняя облачность в баллах и высота нижней границы облаков в метрах; квадратными скобками обозначены формы облаков: Ci - перистые, Cs - перисто-слоистые, Cc - перисто-кучевые, Ac - высококучевые, As - высокослоистые, Sc - слоисто-кучевые, Ns - слоисто-дождевые, Cu - кучевые, Cb - кучево-дождевые. Подробнее классификацию облаков см. в Атласе облаков (PDF).
T - Температура воздуха - температура, измеренная на высоте 2 м над землей.
Td - Температура точки росы - температура, при понижении до которой содержащийся в воздухе водяной пар достигнет насыщения.
f - Относительная влажность воздуха - влажноcть воздуха, измеренная на высоте 2 м над землей.
Te - Эффективная температура - температура, которую ощущает одетый по сезону человек в тени. Характеристика душности погоды. При расчете учитывается влияние влажности воздуха и скорости ветра на теплоощущения человека.
Tes - Эффективная температура на солнце - температура, которую ощущает человек, с поправкой на солнечный нагрев. Характеристика знойности погоды. Зависит от высоты солнца над горизонтом, облачности и скорости ветра. Ночью, в пасмурную погоду, а также при ветре 12 м/с и более поправка равна нулю.
P - Атмосферное давление - приведенное к уровню моря атмосферное давление.
Po - Атмосферное давление - измеренное на уровне метеостанции атмосферное давление.
Tmin - Минимальная температура - минимум температуры воздуха на высоте 2 м над землей.
Tmax - Максимальная температура - максимум температуры воздуха на высоте 2 м над землей.
R - Количество осадков - Количество выпавших осадков за период времени, мм. При наведении курсора мыши на число - период времени, за который выпало указанное количество осадков.
R24 - Количество осадков - Количество выпавших осадков за 24 часа, мм.
S - Снежный покров - Высота снежного покрова, см. При наведении курсора мыши на число - состояние снежного покрова и степень покрытия местности в баллах.